• In Denmark
  • List of Countries
  • For 7 days
  • Water Temperature
  • Satellite Maps
  • Weather Map
  • Weather Widgets
  • user-avatar
    Login

    Hourly Weather Dankon

    Today, 26 September, Wednesday

    Time Temperature Precipitation Wind Pressure Humidity
    00:00 +21°C° 0 mm 0 mps 701 mmHg 92%
    01:00 +23°C° 0 mm 1 mps 701 mmHg 93%
    02:00 +21°C° 0 mm 0 mps 701 mmHg 94%
    03:00 +21°C° 0 mm 0 mps 700 mmHg 95%
    04:00 +20°C° 0 mm 0 mps 700 mmHg 96%
    05:00 +21°C° 0 mm 0 mps 701 mmHg 94%
    06:00 +21°C° 0 mm 0 mps 701 mmHg 92%
    07:00 +23°C° 0 mm 0 mps 701 mmHg 90%
    08:00 +25°C° 0.1 mm 0 mps 702 mmHg 80%
    09:00 +27°C° 0.1 mm 0 mps 702 mmHg 70%
    10:00 +32°C° 0.1 mm 1 mps 702 mmHg 61%
    11:00 +33°C° 0.2 mm 1 mps 702 mmHg 56%
    12:00 +34°C° 0.2 mm 1 mps 701 mmHg 52%
    13:00 +35°C° 0.2 mm 1 mps 701 mmHg 48%
    14:00 +34°C° 0.1 mm 1 mps 700 mmHg 51%
    15:00 +34°C° 0.1 mm 1 mps 700 mmHg 54%
    16:00 +33°C° 0.1 mm 1 mps 699 mmHg 57%
    17:00 +31°C° 0.1 mm 1 mps 699 mmHg 66%
    18:00 +29°C° 0.1 mm 1 mps 699 mmHg 75%
    19:00 +27°C° 0.1 mm 1 mps 699 mmHg 83%
    20:00 +26°C° 0 mm 1 mps 700 mmHg 86%
    21:00 +26°C° 0 mm 1 mps 700 mmHg 89%
    22:00 +25°C° 0 mm 1 mps 701 mmHg 91%
    23:00 +25°C° 0 mm 1 mps 701 mmHg 93%

    Tomorrow, 27 September, Thursday

    Time Temperature Precipitation Wind Pressure Humidity
    00:00 +22°C° 0 mm 0 mps 701 mmHg 94%
    01:00 +22°C° 0 mm 0 mps 701 mmHg 96%
    02:00 +22°C° 0 mm 0 mps 700 mmHg 96%
    03:00 +22°C° 0 mm 0 mps 700 mmHg 97%
    04:00 +21°C° 0 mm 0 mps 700 mmHg 97%
    05:00 +22°C° 0 mm 0 mps 700 mmHg 96%
    06:00 +22°C° 0 mm 0 mps 701 mmHg 95%
    07:00 +22°C° 0 mm 0 mps 701 mmHg 94%
    08:00 +25°C° 0 mm 0 mps 701 mmHg 83%
    09:00 +28°C° 0 mm 0 mps 702 mmHg 71%
    10:00 +30°C° 0 mm 0 mps 703 mmHg 60%
    11:00 +31°C° 0.1 mm 0 mps 702 mmHg 56%
    12:00 +32°C° 0.1 mm 0 mps 702 mmHg 52%
    13:00 +35°C° 0.1 mm 1 mps 701 mmHg 48%
    14:00 +32°C° 0.2 mm 0 mps 700 mmHg 55%
    15:00 +31°C° 0.2 mm 0 mps 700 mmHg 61%
    16:00 +30°C° 0.2 mm 0 mps 699 mmHg 67%
    17:00 +28°C° 0.1 mm 0 mps 699 mmHg 73%
    18:00 +27°C° 0.1 mm 0 mps 699 mmHg 79%
    19:00 +25°C° 0.1 mm 0 mps 700 mmHg 84%
    20:00 +24°C° 0.1 mm 0 mps 700 mmHg 86%
    21:00 +24°C° 0.1 mm 0 mps 701 mmHg 88%
    22:00 +24°C° 0.1 mm 0 mps 701 mmHg 89%
    23:00 +23°C° 0.1 mm 0 mps 701 mmHg 91%

    Day after tomorrow, 28 September, Friday

    Time Temperature Precipitation Wind Pressure Humidity
    00:00 +23°C° 0.1 mm 0 mps 701 mmHg 92%
    01:00 +23°C° 0.1 mm 0 mps 701 mmHg 93%
    02:00 +22°C° 0.1 mm 0 mps 701 mmHg 94%
    03:00 +22°C° 0.1 mm 0 mps 700 mmHg 95%
    04:00 +22°C° 0.1 mm 0 mps 700 mmHg 95%
    05:00 +22°C° 0.2 mm 0 mps 701 mmHg 95%
    06:00 +22°C° 0.2 mm 0 mps 701 mmHg 94%
    07:00 +23°C° 0.2 mm 0 mps 702 mmHg 93%
    08:00 +25°C° 0.7 mm 0 mps 702 mmHg 87%
    09:00 +27°C° 0.7 mm 0 mps 702 mmHg 80%
    10:00 +29°C° 0.7 mm 0 mps 703 mmHg 74%
    11:00 +30°C° 0.6 mm 0 mps 703 mmHg 67%
    12:00 +32°C° 0.6 mm 0 mps 702 mmHg 61%
    13:00 +33°C° 0.6 mm 0 mps 702 mmHg 55%
    14:00 +31°C° 1.5 mm 0 mps 701 mmHg 65%
    15:00 +30°C° 1.5 mm 0 mps 700 mmHg 74%
    16:00 +28°C° 1.5 mm 0 mps 700 mmHg 84%
    17:00 +27°C° 0.8 mm 0 mps 700 mmHg 87%
    18:00 +25°C° 0.8 mm 0 mps 700 mmHg 90%
    19:00 +24°C° 0.8 mm 0 mps 701 mmHg 94%
    20:00 +23°C° 0.2 mm 0 mps 701 mmHg 95%
    21:00 +23°C° 0.2 mm 0 mps 702 mmHg 95%
    22:00 +23°C° 0.2 mm 0 mps 702 mmHg 96%
    23:00 +23°C° 1.2 mm 0 mps 702 mmHg 97%

    29 September, Saturday

    Time Temperature Precipitation Wind Pressure Humidity
    00:00 +22°C° 1.2 mm 0 mps 702 mmHg 98%
    01:00 +22°C° 1.2 mm 0 mps 701 mmHg 99%
    02:00 +22°C° 0.9 mm 0 mps 701 mmHg 99%
    03:00 +22°C° 0.9 mm 0 mps 701 mmHg 99%
    04:00 +22°C° 0.9 mm 0 mps 701 mmHg 99%
    05:00 +22°C° 0.5 mm 0 mps 701 mmHg 98%
    06:00 +22°C° 0.5 mm 0 mps 702 mmHg 98%
    07:00 +22°C° 0.5 mm 0 mps 702 mmHg 98%
    08:00 +23°C° 0.8 mm 0 mps 702 mmHg 95%
    09:00 +25°C° 0.8 mm 0 mps 703 mmHg 91%
    10:00 +26°C° 0.8 mm 0 mps 703 mmHg 88%
    11:00 +27°C° 1.2 mm 0 mps 702 mmHg 86%
    12:00 +27°C° 1.2 mm 0 mps 702 mmHg 85%
    13:00 +28°C° 1.2 mm 0 mps 701 mmHg 83%
    14:00 +27°C° 2.2 mm 0 mps 700 mmHg 86%
    15:00 +27°C° 2.2 mm 0 mps 700 mmHg 89%
    16:00 +27°C° 2.2 mm 0 mps 699 mmHg 92%
    17:00 +25°C° 1.1 mm 0 mps 699 mmHg 93%
    18:00 +24°C° 1.1 mm 0 mps 700 mmHg 94%
    19:00 +23°C° 1.1 mm 0 mps 700 mmHg 95%
    20:00 +22°C° 0.7 mm 0 mps 701 mmHg 96%
    21:00 +22°C° 0.7 mm 0 mps 701 mmHg 97%
    22:00 +22°C° 0.7 mm 0 mps 702 mmHg 97%
    23:00 +21°C° 1.1 mm 0 mps 702 mmHg 98%

    30 September, Sunday

    Time Temperature Precipitation Wind Pressure Humidity
    00:00 +21°C° 1.1 mm 0 mps 701 mmHg 98%
    01:00 +21°C° 1.1 mm 0 mps 701 mmHg 98%
    02:00 +21°C° 0.6 mm 0 mps 701 mmHg 98%
    03:00 +21°C° 0.6 mm 0 mps 701 mmHg 98%
    04:00 +21°C° 0.6 mm 0 mps 701 mmHg 99%
    05:00 +21°C° 0.4 mm 0 mps 701 mmHg 98%
    06:00 +21°C° 0.4 mm 0 mps 702 mmHg 98%
    07:00 +21°C° 0.4 mm 0 mps 702 mmHg 98%
    08:00 +23°C° 0.3 mm 0 mps 702 mmHg 92%
    09:00 +24°C° 0.3 mm 0 mps 703 mmHg 85%
    10:00 +26°C° 0.3 mm 0 mps 703 mmHg 79%
    11:00 +26°C° 1.1 mm 0 mps 702 mmHg 80%
    12:00 +27°C° 1.1 mm 0 mps 702 mmHg 80%
    13:00 +27°C° 1.1 mm 0 mps 701 mmHg 81%
    14:00 +27°C° 2.1 mm 0 mps 700 mmHg 83%
    15:00 +27°C° 2.1 mm 0 mps 700 mmHg 85%
    16:00 +27°C° 2.1 mm 0 mps 699 mmHg 86%
    17:00 +25°C° 1.2 mm 0 mps 700 mmHg 89%
    18:00 +24°C° 1.2 mm 0 mps 700 mmHg 91%
    19:00 +22°C° 1.2 mm 0 mps 700 mmHg 94%
    20:00 +22°C° 0.3 mm 0 mps 701 mmHg 95%
    21:00 +22°C° 0.3 mm 0 mps 702 mmHg 95%
    22:00 +21°C° 0.3 mm 0 mps 702 mmHg 96%
    23:00 +21°C° 1.1 mm 0 mps 702 mmHg 97%

    1 October, Monday

    Time Temperature Precipitation Wind Pressure Humidity
    00:00 +21°C° 1.1 mm 0 mps 702 mmHg 97%
    01:00 +20°C° 1.1 mm 0 mps 702 mmHg 98%
    02:00 +20°C° 1.8 mm 0 mps 702 mmHg 98%
    03:00 +20°C° 1.8 mm 0 mps 702 mmHg 98%
    04:00 +20°C° 1.8 mm 0 mps 702 mmHg 99%
    05:00 +20°C° 1.4 mm 0 mps 702 mmHg 98%
    06:00 +20°C° 1.4 mm 0 mps 703 mmHg 98%
    07:00 +20°C° 1.4 mm 0 mps 703 mmHg 98%
    08:00 +21°C° 0.8 mm 0 mps 703 mmHg 94%
    09:00 +22°C° 0.8 mm 0 mps 703 mmHg 90%
    10:00 +23°C° 0.8 mm 0 mps 704 mmHg 87%
    11:00 +26°C° 0.3 mm 1 mps 703 mmHg 82%
    12:00 +27°C° 0.3 mm 1 mps 702 mmHg 77%
    13:00 +28°C° 0.3 mm 1 mps 702 mmHg 72%
    14:00 +28°C° 0.4 mm 1 mps 701 mmHg 75%
    15:00 +28°C° 0.4 mm 1 mps 701 mmHg 78%
    16:00 +26°C° 0.4 mm 0 mps 701 mmHg 81%
    17:00 +24°C° 0.3 mm 0 mps 701 mmHg 84%
    18:00 +23°C° 0.3 mm 0 mps 701 mmHg 88%
    19:00 +22°C° 0.3 mm 0 mps 702 mmHg 91%
    20:00 +21°C° 0.1 mm 0 mps 702 mmHg 93%
    21:00 +21°C° 0.1 mm 0 mps 703 mmHg 94%
    22:00 +21°C° 0.1 mm 0 mps 703 mmHg 95%
    23:00 +20°C° 0 mm 0 mps 703 mmHg 96%
    Show more